Fort Stockton, TX

2:32 AM CST on January 22, 2017 (GMT -0600)
Fort Stockton-Pecos County

Weather History for KFST - January, 2013

Change the Weather History Date:

Monday, January 21, 2013

  Actual Average Record
Temperature  
Mean Temperature 45 °F -  
Max Temperature 54 °F 61 °F 80 °F (2000)
Min Temperature 36 °F 37 °F 26 °F (2011)
Degree Days  
Heating Degree Days 20    
Moisture  
Dew Point 25 °F    
Average Humidity 47    
Maximum Humidity 65    
Minimum Humidity 32    
Precipitation  
Precipitation 0.00 in - - ()
Sea Level Pressure  
Sea Level Pressure 30.16 in    
Wind  
Wind Speed 9 mph (West)    
Max Wind Speed 16 mph    
Max Gust Speed 20 mph    
Visibility 10 miles    
Events      
Averages and records for this station are not official NWS values.
T = Trace of Precipitation, MM = Missing Value Source: NWS Daily Summary

Daily Weather History Graph

Daily Weather History Graph

Search for Another Location

Airport or City:

Trip Planner

Search our weather history database for the weather conditions in past years. The results will help you decide how hot, cold, wet, or windy it might be!

Date:

Astronomy

Jan. 21, 2013 Rise Set
Actual Time 7:48 AM CST 6:17 PM CST
Civil Twilight 7:22 AM CST 6:43 PM CST
Nautical Twilight 6:53 AM CST 7:13 PM CST
Astronomical Twilight 6:24 AM CST 7:41 PM CST
Moon 2:00 PM CST (1/21) 3:18 AM CST (1/21)
Length of Visible Light 11h 20m
Length of Day
10h 29m
Waxing Gibbous, 75% of the Moon is Illuminated
Jan 21
Waxing Gibbous
Jan 26
Full
Feb 3
Last Quarter
Feb 10
New
Feb 17
First Quarter

Hourly Weather History & Observations

Time (CST) Temp. Windchill Dew Point Humidity Pressure Visibility Wind Dir Wind Speed Gust Speed Precip Events Conditions
12:53 AM 46.9 °F - 28.0 °F 48% 30.05 in 10.0 mi South 9.2 mph - N/A   Clear
1:53 AM 48.0 °F - 28.0 °F 46% 30.05 in 10.0 mi South 10.4 mph - N/A   Clear
2:53 AM 45.0 °F 38.5 °F 28.9 °F 53% 30.05 in 10.0 mi SW 13.8 mph - N/A   Clear
3:53 AM 42.1 °F 35.7 °F 28.0 °F 58% 30.09 in 10.0 mi West 11.5 mph - N/A   Clear
4:53 AM 39.9 °F 31.4 °F 25.0 °F 55% 30.10 in 10.0 mi West 16.1 mph - N/A   Clear
5:53 AM 37.9 °F 29.6 °F 23.0 °F 55% 30.13 in 10.0 mi West 13.8 mph - N/A   Clear
6:53 AM 37.0 °F 30.4 °F 21.0 °F 52% 30.17 in 10.0 mi West 9.2 mph - N/A   Clear
7:53 AM 36.0 °F 28.0 °F 19.9 °F 52% 30.20 in 10.0 mi West 11.5 mph - N/A   Clear
8:53 AM 37.9 °F 30.5 °F 21.0 °F 51% 30.24 in 10.0 mi WNW 11.5 mph - N/A   Clear
9:53 AM 42.1 °F 34.9 °F 21.0 °F 43% 30.24 in 10.0 mi West 13.8 mph 19.6 mph N/A   Clear
10:53 AM 45.0 °F 38.9 °F 21.9 °F 40% 30.25 in 10.0 mi West 12.7 mph - N/A   Clear
11:53 AM 48.0 °F - 23.0 °F 37% 30.24 in 10.0 mi WNW 10.4 mph - N/A   Clear
12:53 PM 51.1 °F - 23.0 °F 33% 30.21 in 10.0 mi NW 10.4 mph - N/A   Clear
1:53 PM 52.0 °F - 24.1 °F 34% 30.17 in 10.0 mi NNW 6.9 mph - N/A   Clear
2:53 PM 53.1 °F - 24.1 °F 32% 30.16 in 10.0 mi NW 5.8 mph - N/A   Clear
3:53 PM 54.0 °F - 25.0 °F 33% 30.15 in 10.0 mi NE 6.9 mph - N/A   Clear
4:53 PM 54.0 °F - 26.1 °F 34% 30.16 in 10.0 mi Calm Calm - N/A   Clear
5:53 PM 52.0 °F - 27.0 °F 38% 30.15 in 10.0 mi ENE 3.5 mph - N/A   Clear
6:53 PM 46.9 °F - 27.0 °F 46% 30.17 in 10.0 mi ENE 3.5 mph - N/A   Clear
7:53 PM 45.0 °F - 28.0 °F 52% 30.18 in 10.0 mi Calm Calm - N/A   Clear
8:53 PM 42.1 °F 40.2 °F 28.9 °F 60% 30.19 in 10.0 mi South 3.5 mph - N/A   Clear
9:53 PM 42.1 °F 39.2 °F 28.0 °F 58% 30.18 in 10.0 mi South 4.6 mph - N/A   Clear
10:53 PM 39.9 °F 36.7 °F 28.0 °F 63% 30.18 in 10.0 mi South 4.6 mph - N/A   Clear
11:53 PM 39.0 °F 34.0 °F 28.0 °F 65% 30.17 in 10.0 mi South 6.9 mph - N/A   Clear